Miscellaneous Local Product
Issued by NWS North Platte, NE

Home | Current Version | Previous Version | Graphics & Text | Print | Product List | Glossary On
Versions: 1 2 3 4 5 6 7 8 9 10 11 12 13 14 15 16 17 18 19 20 21 22 23 24 25 26 27 28 29 30 31 32 33 34 35 36 37 38 39 40 41 42 43 44 45 46 47 48 49 50
000
AXUS43 KLBF 261410
MISLBF


WESTERN AND NORTH CENTRAL NEBRASKA HOURLY WEATHER ROUNDUP
NATIONAL WEATHER SERVICE NORTH PLATTE NE
900 AM CDT SUN APR 26 2015

***STATIONS NOT REPORTING VARIABLES SUCH AS SKY/WEATHER OR
PRESSURE ARE PROVIDED BY THE NEBRASKA DEPARTMENT OF
ROADS...RAWS...AND APRS NETWORKS...AND ARE NOT UNDER
NATIONAL WEATHER SERVICE QUALITY CONTROL***

...OBSERVATIONS IN AND NEAR THE EASTERN PANHANDLE OF NEBRASKA...

CITY           SKY/WX    TMP DP  RH WIND       PRES   REMARKS
PINE RIDGE     LGT RAIN  47  43  86 E12       29.93R FOG
CHADRON        LGT RAIN  48  47  96 E8        29.91R FOG
ALLIANCE       LGT RAIN  45  43  93 E13       29.89R FOG
SIDNEY         FOG       43  43 100 SE15      29.90R VSB 1/4
WHITECLAY        N/A     44  41  89 E10         N/A
CRESCENT LAKE    N/A     43  43  99 SE9         N/A
BIG SPRINGS      N/A     45  44  97 E12         N/A
$$

...OBSERVATIONS IN NORTH CENTRAL NEBRASKA...

CITY           SKY/WX    TMP DP  RH WIND       PRES   REMARKS
VALENTINE      CLOUDY    46  39  76 SE15      30.00R
THEDFORD       CLOUDY    45  44  96 E9        29.98R FOG
AINSWORTH      CLOUDY    45  40  83 SE8       30.01R
O`NEILL        CLOUDY    49  40  71 E9        30.03R
ORD            CLOUDY    46  40  79 E8        29.99S
BROKEN BOW     CLOUDY    46  40  79 E14G26    29.98R
BROWNLEE         N/A     46  43  91 E10         N/A
VALENTINE NWR    N/A     43  40  91 SE9         N/A
SPRINGVIEW       N/A     46  40  79 SE7         N/A
BREWSTER         N/A     44  40  86 E16         N/A
ROSE             N/A     42  42  99 E10         N/A
NEWPORT          N/A     46  40  79 SE12        N/A
SARGENT          N/A     44  41  88 E7          N/A
COMSTOCK         N/A     46  42  88 E14         N/A
EWING            N/A     50  40  67 E5G12       N/A
$$

...OBSERVATIONS IN SOUTHWEST NEBRASKA AND FAR NORTHEAST COLORADO...

CITY           SKY/WX    TMP DP  RH WIND       PRES   REMARKS
WRAY           CLOUDY   N/A N/A N/A E13G21    29.90R FOG
HOLYOKE        LGT RAIN  45  41  87 E16       29.90S VSB 3/4
IMPERIAL       CLOUDY    43  40  89 E16       29.93R
OGALLALA       CLOUDY    43  43  99 E13       29.93R FOG
MCCOOK         CLOUDY    45  43  93 E16       29.92R FOG
LEXINGTON      CLOUDY    45  43  93 E16       29.96S FOG
PAXTON           N/A     44  42  94 E13         N/A
SUTHERLAND       N/A     39  37  94 E13         N/A  WCI  31
BRADY            N/A     42  40  92 N5G12       N/A
GOTHENBURG       N/A     43  41  92 E10         N/A
CALLAWAY         N/A     43  42  96 E12         N/A
$$

...NORTH PLATTE AREA...

CITY           SKY/WX    TMP DP  RH WIND       PRES   REMARKS
$$

...SOME WEATHER OBSERVATIONS FROM AROUND THE REGION...

CITY           SKY/WX    TMP DP  RH WIND       PRES   REMARKS
DENVER         LGT RAIN  42  42 100 E23       29.81F
LARAMIE        CLOUDY    37  35  92 CALM      29.84R
CHEYENNE       CLOUDY    42  40  92 S12       29.84R
SCOTTSBLUFF    LGT RAIN  47  32  56 E16       29.87R
RAPID CITY     CLOUDY    43  42  97 N13       29.95R FOG
PIERRE         PTSUNNY   48  42  80 SE12      30.00R
WINNER         PTSUNNY   52  42  69 S9        30.01R
SIOUX FALLS    MOSUNNY   47  39  74 CALM      30.07R
OMAHA          MOSUNNY   48  39  71 E13G18    30.04R
GRAND ISLAND   CLOUDY    47  40  76 E10       30.01R
KANSAS CITY    CLOUDY    48  43  82 NE14      29.96R
WICHITA        CLOUDY    52  47  83 E13G21    29.86R
HAYS           CLOUDY    46  39  76 E20G25    29.90R
LIBERAL        CLOUDY    50  45  81 E17G24    29.80S
GOODLAND       CLOUDY    43  43 100 E16       29.89S FOG
$$



USA.gov is the U.S. government's official web portal to all federal, state and local government web resources and services.